Tracking 30995 objects as of 6-Jul-2025
HD Live streaming from Space Station
objects crossing your sky now

OBJECT J

Track OBJECT J now!
10-day predictions


NORAD ID: 54690
Int'l Code: 2022-167J
Perigee: 493.9 km
Apogee: 501.3 km
Inclination: 97.6 °
Period: 94.4 minutes
Semi major axis: 6868 km
RCS: Unknown
Launch date: December 9, 2022
Source: People's Republic of China (PRC)
Launch site: Yellow Sea Launch Area, China (YSLA)
Your satellite tracking list
Your tracking list is empty




NASA's NSSDC Master Catalog

Two Line Element Set (TLE):
1 54690U 22167J   25186.86147387  .00007484  00000-0  30177-3 0  9992
2 54690  97.6497 338.7780 0005425 241.1103 118.9590 15.25113258142409
Source of the keplerian elements: AFSPC